sat.trackr.live / text

‹ back to catalog

STARLINK-35093

NORAD 65478 · 2025-195W

PAYLOAD ACTIVE UNKNOWN

§ Identity

Operator
Country
US
Launch date
2025-09-03
Launch site
AFETR
Launch vehicle
Mass (kg)
RCS (m²)

Purposes: comms

External: N2YO · Heavens-Above · Gunter

§ Orbital elements

Epoch: 2026-09-19T22:03:28.600128Z

Period
94.01 min
Inclination
53.1581°
Eccentricity
0.0002163
Mean motion
15.31714169 rev/d
Perigee alt
469.2 km
Apogee alt
472.2 km
Semi-major
6,848.8 km
B*
3.8583e-4
RAAN
74.4028°
Arg perigee
38.2479°
Mean anomaly
321.8675°
Rev number
5,973

§ Raw data

STARLINK-350931 65478U 25195W   26262.91908102  .00011632  00000+0  38583-3 0  99922 65478  53.1581  74.4028 0002163  38.2479 321.8675 15.31714169 59739

JSON: /api/v1/satellites/65478 · /tle

For live sub-satellite position, see the globe view (requires WebGL).

§ Visibility from observer

Set your observer location to see the next 7 days of passes ≥ 10°. The values pass through the URL so the page stays shareable.

No JS? Fill the form by hand. The geolocation button needs JavaScript.